sat.trackr.live / text

‹ back to catalog

STARLINK-3185

NORAD 51144 · 2022-005AS

PAYLOAD ACTIVE UNKNOWN

§ Identity

Operator
Country
US
Launch date
2022-01-19
Launch site
AFETR
Launch vehicle
Mass (kg)
RCS (m²)

Purposes: comms

External: N2YO · Heavens-Above · Gunter

§ Orbital elements

Epoch: 2026-09-20T01:12:08.696160Z

Period
94.01 min
Inclination
53.1590°
Eccentricity
0.0001419
Mean motion
15.31701873 rev/d
Perigee alt
469.8 km
Apogee alt
471.7 km
Semi-major
6,848.9 km
B*
3.1347e-5
RAAN
131.8893°
Arg perigee
86.8727°
Mean anomaly
273.2436°
Rev number
25,828

§ Raw data

STARLINK-31851 51144U 22005AS  26263.05010065  .00000608  00000+0  31347-4 0  99952 51144  53.1590 131.8893 0001419  86.8727 273.2436 15.31701873258284

JSON: /api/v1/satellites/51144 · /tle

For live sub-satellite position, see the globe view (requires WebGL).

§ Visibility from observer

Set your observer location to see the next 7 days of passes ≥ 10°. The values pass through the URL so the page stays shareable.

No JS? Fill the form by hand. The geolocation button needs JavaScript.